Regional Weather Roundup
Issued by NWS

Home | Current Version | Previous Version | Text Only | Print | Product List | Glossary On
Versions: 1 2 3 4 5 6 7 8 9 10 11 12 13 14 15 16 17 18 19 20 21 22 23 24 25 26 27 28 29 30 31 32 33 34 35 36 37 38 39 40 41 42 43 44 45 46 47 48 49 50
000
ASUS45 KBOI 230910
RWRID

IDAHO REGIONAL WEATHER ROUNDUP
NATIONAL WEATHER SERVICE BOISE ID
300 AM MDT SUN JUL 23 2017

NOTE: "FAIR" INDICATES FEW OR NO CLOUDS BELOW 12000 FEET
WITH NO SIGNIFICANT WEATHER AND/OR OBSTRUCTIONS TO VISIBILITY

IDZ012-014-231000-
SOUTHWEST IDAHO


CITY           SKY/WX    TMP DP  RH WIND       PRES   REMARKS
BOISE          CLEAR     68  39  34 SE7       30.00S
CALDWELL       CLEAR     65  53  65 W5        29.99S
MOUNTAIN HOME  CLEAR     66  37  35 CALM      30.01S
$$

IDZ016-017-231000-
SOUTHCENTRAL IDAHO


CITY           SKY/WX    TMP DP  RH WIND       PRES   REMARKS
BURLEY         MOCLDY    60  43  53 S6        30.10F
JEROME         CLOUDY    71  37  28 S12       30.12R
TWIN FALLS     CLOUDY    73  34  23 SW12      30.10F
$$

IDZ019>023-231000-
SOUTHEAST IDAHO


CITY           SKY/WX    TMP DP  RH WIND       PRES   REMARKS
IDAHO FALLS    CLEAR     52  47  83 CALM      30.15F
POCATELLO      CLEAR     51  40  65 W7        30.14R
REXBURG        CLEAR     52  48  86 NE7       30.16F
$$

IDZ006-010-011-018-031-032-231000-
CENTRAL IDAHO MOUNTAINS


CITY           SKY/WX    TMP DP  RH WIND       PRES   REMARKS
MCCALL         CLEAR     64  40  41 N6        30.16F
HAILEY         PTCLDY    59  37  44 NW12      30.19F
STANLEY          N/A     48  34  58 S5        30.28S
SALMON         NOT AVBL
CHALLIS        CLEAR     59  36  42 CALM      30.16F
$$

IDZ002-004-006-007-026-231000-
NORTHERN IDAHO


CITY           SKY/WX    TMP DP  RH WIND       PRES   REMARKS
LEWISTON       CLEAR     71  46  40 CALM      29.99F
LOWELL           N/A     61  53  75 CALM      30.06S
COEUR D`ALENE  CLEAR     65  52  62 E3        30.04F
MULLAN PASS    CLEAR     61  40  45 NW3       30.25F
$$



USA.gov is the U.S. government's official web portal to all federal, state and local government web resources and services.